Location: Newark
(49.2191°N, 12.6671°E)
Time: 18:42:44
(UTC+00:00)

Transit 4A - Pass Details

Date: 31 January 2020
Orbit: 872 x 973 km, 66.8° (Epoch: 26 February)

Event Time Altitude Azimuth Distance (km) Brightness Sun altitude
Rises 10:39:51 0° 322° (NW) 3,480 10.4 22.6°
Reaches altitude 10° 10:42:55 10° 337° (NNW) 2,533 9.7 22.7°
Maximum altitude 10:47:27 23° 29° (NNE) 1,795 9.1 22.9°
Drops below altitude 10° 10:51:58 10° 80° (E) 2,531 10.2 23.0°
Sets 10:55:01 0° 95° (E) 3,475 11.0 23.0°
